When you browse on this site, cookies collect data to enhance your experience and personalize the content and advertising you see.
Visit our Privacy Policy to learn more. By continuing to use the site, you agree to this use of cookies and data.
  • In Hungary
  • List of Countries
  • For 7 days
  • Water Temperature
  • Weather Map
  • News
  • Weather Widgets
  • user-avatar
    Login

    Hourly Weather Tucson

    Today, 14 November, Thursday

    Time Temperature Precipitation Wind Pressure Humidity
    00:00 +16°C° 0 mm 0 mps 696 mmHg 40%
    01:00 +15°C° 0 mm 0 mps 696 mmHg 40%
    02:00 +15°C° 0 mm 0 mps 696 mmHg 40%
    03:00 +15°C° 0 mm 0 mps 696 mmHg 41%
    04:00 +15°C° 0 mm 1 mps 696 mmHg 41%
    05:00 +15°C° 0 mm 1 mps 697 mmHg 42%
    06:00 +16°C° 0 mm 1 mps 697 mmHg 40%
    07:00 +18°C° 0 mm 1 mps 698 mmHg 39%
    08:00 +19°C° 0 mm 1 mps 698 mmHg 38%
    09:00 +21°C° 0 mm 1 mps 699 mmHg 33%
    10:00 +23°C° 0 mm 1 mps 699 mmHg 28%
    11:00 +23°C° 0 mm 0 mps 700 mmHg 23%
    12:00 +26°C° 0 mm 1 mps 699 mmHg 21%
    13:00 +26°C° 0 mm 1 mps 699 mmHg 20%
    14:00 +27°C° 0 mm 1 mps 698 mmHg 18%
    15:00 +26°C° 0 mm 1 mps 698 mmHg 20%
    16:00 +26°C° 0 mm 1 mps 698 mmHg 22%
    17:00 +25°C° 0 mm 1 mps 698 mmHg 24%
    18:00 +24°C° 0 mm 1 mps 699 mmHg 25%
    19:00 +23°C° 0 mm 1 mps 699 mmHg 27%
    20:00 +21°C° 0 mm 2 mps 699 mmHg 28%
    21:00 +20°C° 0 mm 2 mps 699 mmHg 29%
    22:00 +20°C° 0 mm 2 mps 700 mmHg 30%
    23:00 +19°C° 0 mm 2 mps 700 mmHg 31%

    Tomorrow, 15 November, Friday

    Time Temperature Precipitation Wind Pressure Humidity
    00:00 +19°C° 0 mm 2 mps 699 mmHg 32%
    01:00 +18°C° 0 mm 3 mps 699 mmHg 32%
    02:00 +18°C° 0 mm 3 mps 699 mmHg 33%
    03:00 +17°C° 0 mm 3 mps 699 mmHg 33%
    04:00 +17°C° 0 mm 3 mps 699 mmHg 34%
    05:00 +17°C° 0 mm 4 mps 699 mmHg 35%
    06:00 +17°C° 0 mm 4 mps 699 mmHg 35%
    07:00 +17°C° 0 mm 4 mps 699 mmHg 35%
    08:00 +17°C° 0 mm 4 mps 699 mmHg 35%
    09:00 +19°C° 0 mm 4 mps 700 mmHg 31%
    10:00 +21°C° 0 mm 4 mps 700 mmHg 28%
    11:00 +23°C° 0 mm 4 mps 700 mmHg 24%
    12:00 +25°C° 0 mm 4 mps 699 mmHg 23%
    13:00 +26°C° 0 mm 3 mps 699 mmHg 21%
    14:00 +27°C° 0 mm 3 mps 698 mmHg 19%
    15:00 +26°C° 0 mm 3 mps 698 mmHg 21%
    16:00 +26°C° 0 mm 3 mps 697 mmHg 23%
    17:00 +25°C° 0 mm 3 mps 697 mmHg 24%
    18:00 +24°C° 0 mm 3 mps 697 mmHg 26%
    19:00 +22°C° 0 mm 3 mps 697 mmHg 27%
    20:00 +21°C° 0 mm 3 mps 697 mmHg 29%
    21:00 +20°C° 0 mm 2 mps 697 mmHg 30%
    22:00 +19°C° 0 mm 2 mps 697 mmHg 31%
    23:00 +19°C° 0 mm 2 mps 697 mmHg 32%

    Day after tomorrow, 16 November, Saturday

    Time Temperature Precipitation Wind Pressure Humidity
    00:00 +18°C° 0 mm 2 mps 697 mmHg 33%
    01:00 +18°C° 0 mm 2 mps 697 mmHg 33%
    02:00 +18°C° 0 mm 2 mps 696 mmHg 34%
    03:00 +18°C° 0 mm 2 mps 696 mmHg 34%
    04:00 +17°C° 0 mm 2 mps 696 mmHg 35%
    05:00 +17°C° 0 mm 2 mps 696 mmHg 35%
    06:00 +18°C° 0 mm 2 mps 696 mmHg 35%
    07:00 +18°C° 0 mm 2 mps 697 mmHg 34%
    08:00 +19°C° 0 mm 2 mps 697 mmHg 34%
    09:00 +21°C° 0 mm 2 mps 698 mmHg 30%
    10:00 +24°C° 0 mm 1 mps 698 mmHg 26%
    11:00 +26°C° 0 mm 1 mps 698 mmHg 23%
    12:00 +26°C° 0 mm 1 mps 698 mmHg 22%
    13:00 +27°C° 0 mm 2 mps 697 mmHg 21%
    14:00 +28°C° 0 mm 2 mps 696 mmHg 20%
    15:00 +27°C° 0 mm 2 mps 696 mmHg 22%
    16:00 +26°C° 0 mm 3 mps 696 mmHg 24%
    17:00 +25°C° 0 mm 3 mps 696 mmHg 25%
    18:00 +24°C° 0 mm 2 mps 696 mmHg 28%
    19:00 +21°C° 0 mm 2 mps 696 mmHg 30%
    20:00 +21°C° 0 mm 1 mps 696 mmHg 33%
    21:00 +20°C° 0 mm 1 mps 696 mmHg 34%
    22:00 +20°C° 0 mm 1 mps 697 mmHg 35%
    23:00 +17°C° 0 mm 0 mps 697 mmHg 36%

    17 November, Sunday

    Time Temperature Precipitation Wind Pressure Humidity
    00:00 +17°C° 0 mm 0 mps 697 mmHg 37%
    01:00 +16°C° 0 mm 0 mps 697 mmHg 38%
    02:00 +15°C° 0 mm 0 mps 696 mmHg 39%
    03:00 +15°C° 0 mm 0 mps 696 mmHg 39%
    04:00 +15°C° 0 mm 0 mps 696 mmHg 40%
    05:00 +14°C° 0 mm 0 mps 697 mmHg 40%
    06:00 +16°C° 0 mm 1 mps 697 mmHg 39%
    07:00 +18°C° 0 mm 1 mps 698 mmHg 37%
    08:00 +19°C° 0 mm 1 mps 698 mmHg 36%
    09:00 +21°C° 0 mm 1 mps 698 mmHg 31%
    10:00 +21°C° 0 mm 0 mps 699 mmHg 26%
    11:00 +23°C° 0 mm 0 mps 699 mmHg 21%
    12:00 +26°C° 0 mm 1 mps 698 mmHg 20%
    13:00 +27°C° 0 mm 2 mps 698 mmHg 18%
    14:00 +28°C° 0 mm 2 mps 697 mmHg 17%
    15:00 +27°C° 0 mm 2 mps 697 mmHg 18%
    16:00 +26°C° 0 mm 2 mps 697 mmHg 19%
    17:00 +25°C° 0 mm 2 mps 697 mmHg 21%
    18:00 +23°C° 0 mm 1 mps 697 mmHg 22%
    19:00 +22°C° 0 mm 1 mps 697 mmHg 24%
    20:00 +20°C° 0 mm 1 mps 697 mmHg 25%
    21:00 +20°C° 0 mm 1 mps 697 mmHg 27%
    22:00 +19°C° 0 mm 1 mps 697 mmHg 28%
    23:00 +16°C° 0 mm 0 mps 697 mmHg 29%

    18 November, Monday

    Time Temperature Precipitation Wind Pressure Humidity
    00:00 +16°C° 0 mm 0 mps 696 mmHg 30%
    01:00 +15°C° 0 mm 0 mps 696 mmHg 30%
    02:00 +15°C° 0 mm 0 mps 696 mmHg 31%
    03:00 +14°C° 0 mm 0 mps 696 mmHg 32%
    04:00 +14°C° 0 mm 0 mps 696 mmHg 32%
    05:00 +14°C° 0 mm 0 mps 696 mmHg 33%
    06:00 +15°C° 0 mm 0 mps 696 mmHg 32%
    07:00 +16°C° 0 mm 0 mps 696 mmHg 32%
    08:00 +17°C° 0 mm 0 mps 697 mmHg 32%
    09:00 +21°C° 0 mm 1 mps 697 mmHg 27%
    10:00 +23°C° 0 mm 1 mps 697 mmHg 22%
    11:00 +25°C° 0 mm 1 mps 697 mmHg 18%
    12:00 +26°C° 0 mm 1 mps 697 mmHg 17%
    13:00 +27°C° 0 mm 2 mps 696 mmHg 16%
    14:00 +27°C° 0 mm 3 mps 695 mmHg 16%
    15:00 +26°C° 0 mm 2 mps 695 mmHg 18%
    16:00 +25°C° 0 mm 2 mps 695 mmHg 20%
    17:00 +24°C° 0 mm 2 mps 694 mmHg 22%
    18:00 +23°C° 0 mm 1 mps 694 mmHg 25%
    19:00 +21°C° 0 mm 1 mps 695 mmHg 27%
    20:00 +18°C° 0 mm 0 mps 695 mmHg 30%
    21:00 +17°C° 0 mm 0 mps 695 mmHg 30%
    22:00 +19°C° 0 mm 1 mps 695 mmHg 30%
    23:00 +19°C° 0 mm 1 mps 694 mmHg 30%

    19 November, Tuesday

    Time Temperature Precipitation Wind Pressure Humidity
    00:00 +18°C° 0 mm 1 mps 694 mmHg 31%
    01:00 +18°C° 0 mm 1 mps 694 mmHg 31%
    02:00 +16°C° 0 mm 1 mps 694 mmHg 32%
    03:00 +16°C° 0 mm 1 mps 694 mmHg 32%
    04:00 +16°C° 0 mm 1 mps 694 mmHg 33%
    05:00 +16°C° 0 mm 1 mps 693 mmHg 33%
    06:00 +18°C° 0 mm 1 mps 694 mmHg 32%
    07:00 +19°C° 0 mm 1 mps 694 mmHg 30%
    08:00 +20°C° 0 mm 1 mps 695 mmHg 29%
    09:00 +22°C° 0 mm 1 mps 695 mmHg 25%
    10:00 +24°C° 0 mm 1 mps 696 mmHg 20%
    11:00 +27°C° 0 mm 1 mps 696 mmHg 16%
    12:00 +28°C° 0 mm 1 mps 696 mmHg 15%
    13:00 +28°C° 0 mm 1 mps 695 mmHg 14%
    14:00 +29°C° 0 mm 1 mps 695 mmHg 13%
    15:00 +28°C° 0 mm 1 mps 695 mmHg 15%
    16:00 +27°C° 0 mm 1 mps 694 mmHg 18%
    17:00 +25°C° 0 mm 1 mps 694 mmHg 20%
    18:00 +24°C° 0 mm 1 mps 694 mmHg 21%
    19:00 +23°C° 0 mm 1 mps 694 mmHg 21%
    20:00 +22°C° 0 mm 1 mps 694 mmHg 22%
    21:00 +21°C° 0 mm 1 mps 694 mmHg 23%
    22:00 +20°C° 0 mm 1 mps 694 mmHg 24%
    23:00 +20°C° 0 mm 1 mps 694 mmHg 25%
    Show more